User: anonymous   Login
Location: Unspecified
(0.0000°N, 0.0000°E)
Time: 19:51:13
(UTC+00:00)
Language:

deb Kosmos-249 - Orbit

View from above orbital plane
View from above orbital plane
View from above satellite
View from above satellite

Ground track
Ground track

The orbit data is extracted from the following two-line orbital elements,

1 06752U 68091CJ  24056.21904464  .00003091  00000-0  32210-2 0  9994
2 06752  62.2807 127.1873 0643029 314.3797  40.6209 13.10573465548467
Epoch (UTC): 25 February 2024 05:15:25
Eccentricity: 0.0643029
inclination: 62.2807°
perigee height: 732 km
apogee height: 1709 km
right ascension of ascending node: 127.1873°
argument of perigee: 314.3797°
revolutions per day: 13.10573465
mean anomaly at epoch: 40.6209°
orbit number at epoch: 54846

The dashed part of the orbit path shows where the satellite is in the earth's shadow,  

DLR